Regional Weather Roundup
Issued by NWS

Home | Current Version | Previous Version | Text Only | Print | Product List | Glossary On
Versions: 1 2 3 4 5 6 7 8 9 10 11 12 13 14 15 16 17 18 19 20 21 22 23 24 25 26 27 28 29 30 31 32 33 34 35 36 37 38 39 40 41 42 43 44 45 46 47 48 49 50
000
ASUS45 KBOI 011010
RWRID

IDAHO REGIONAL WEATHER ROUNDUP
NATIONAL WEATHER SERVICE BOISE ID
400 AM MDT SAT OCT 01 2016

NOTE: "FAIR" INDICATES FEW OR NO CLOUDS BELOW 12000 FEET
WITH NO SIGNIFICANT WEATHER AND/OR OBSTRUCTIONS TO VISIBILITY

IDZ012-014-011100-
SOUTHWEST IDAHO


CITY           SKY/WX    TMP DP  RH WIND       PRES   REMARKS
BOISE          CLOUDY    69  46  43 VRB6      29.90R
CALDWELL       CLOUDY    66  49  54 SE3       29.88R
MOUNTAIN HOME  CLOUDY    65  51  60 E5        29.90S
$$

IDZ016-017-011100-
SOUTHCENTRAL IDAHO


CITY           SKY/WX    TMP DP  RH WIND       PRES   REMARKS
BURLEY         PTCLDY    55  48  77 CALM      29.95F
JEROME         PTCLDY    60  51  72 CALM      29.98R
TWIN FALLS     PTCLDY    60  48  64 S3        29.98R
$$

IDZ019>023-011100-
SOUTHEAST IDAHO


CITY           SKY/WX    TMP DP  RH WIND       PRES   REMARKS
IDAHO FALLS    CLEAR     46  43  89 N5        30.07F
POCATELLO      PTCLDY    49  45  86 E3        30.04F
REXBURG        CLEAR     47  44  90 N3        30.08F
$$

IDZ006-010-011-018-031-032-011100-
CENTRAL IDAHO MOUNTAINS


CITY           SKY/WX    TMP DP  RH WIND       PRES   REMARKS
MCCALL         CLOUDY    56  39  53 CALM      29.95S
HAILEY         MOCLDY    52  48  87 NW8       30.05F THUNDER
STANLEY          N/A     49  45  86 SE7       30.07S
SALMON         CLOUDY    54  46  76 E5        30.00F
CHALLIS        PTCLDY    48  45  89 SE3       30.04F
$$

IDZ002-004-006-007-026-011100-
NORTHERN IDAHO


CITY           SKY/WX    TMP DP  RH WIND       PRES   REMARKS
LEWISTON       CLOUDY    60  36  40 NW5       29.93R
LOWELL           N/A     56  53  90 CALM      29.94R
COEUR D`ALENE  CLOUDY    55  49  80 SW5       29.92R
MULLAN PASS    MOCLDY    47  42  83 NW9G23    29.96R
$$



USA.gov is the U.S. government's official web portal to all federal, state and local government web resources and services.